Other Public Products
Issued by NWS Charleston, SC

Current Version | Previous Version | Graphics & Text | Print | Product List | Glossary On
Versions: 1 2 3 4 5 6 7 8 9 10 11 12 13 14 15 16 17 18 19 20 21 22 23 24 25 26 27 28 29 30 31 32 33 34 35 36 37 38 39 40 41 42 43 44 45 46 47 48 49 50
008
FPUS82 KCHS 231412
OPUCHS

TEST...KCHS/KSAV Gateway Observations...TEST
National Weather Service Charleston SC
1000 AM EDT SUN JUL 23 2017

NOTE: "fair" indicates few or no clouds below 12,000 feet with no
significant weather and/or obstructions to visibility.

SCZ050-WAZ558-NCZ071-TXZ119-213-PAZ071-DCZ001-FLZ074-172-MI076-
NYZ176-178-MAZ016-IL014-TNZ027-NJZ106-GAZ044-MD014-231500-

...Gateway Observations for Charleston International...

CITY           SKY/WX    TMP DP  RH WIND       PRES   REMARKS
Chas Airport   MOSUNNY   84  75  74 SW12      29.97S HX  92
Seattle        CLOUDY    63  56  78 N13       30.09S
Charlotte      MOSUNNY   84  74  71 SW6       29.93F HX  91
Dallas DFW     MOSUNNY   86  74  67 S12       29.89S HX  94
Dallas Love    MOSUNNY   85  73  67 S8        29.90S HX  91
Philladelphia  PTSUNNY   79  71  76 N5        29.78S
Wash National  CLOUDY    82  76  81 E3        29.80S
Baltimore      CLOUDY    83  74  74 VRB3      29.78S
Miami          PTSUNNY   88  75  65 E9        30.05S HX  97
Detroit        PTSUNNY   76  66  71 S5        29.80S
Newark         CLOUDY    76  67  73 CALM      29.79S
Laguardia      CLOUDY    77  70  79 NE5       29.79R
J F K          PTSUNNY   77  71  82 CALM      29.80S
Boston Logan   PTSUNNY   70  55  59 NE15      29.87R
Ft. Lauderdale MOSUNNY   87  74  64 S9        30.04F HX  95
Chicago O`Hare PTSUNNY   81  72  74 W5        29.80F
Chicago Midway PTSUNNY   80  73  79 CALM      29.80S
Houston Bush   MOSUNNY   84  77  79 SW7       29.95R HX  94
Houston Hobby  PTSUNNY   86  77  74 S12       29.95R HX  97
Nashville      PTSUNNY   84  72  67 VRB5      29.96F
Atlanta        SUNNY     83  74  74 W7        29.99F

$$

GAZ044-118-TXZ119-213-NCZ071-DCZ001-MDZ014-506-PAZ021-071-NJZ106-
NYZ176-178-MAZ106-OHZ011-021-055-MIZ076-KYZ091-ILZ014-INZ047-
MNZ060-ONZ431-231500-

...Gateway Observations for Savannah International...

CITY           SKY/WX    TMP DP  RH WIND       PRES   REMARKS
Savannah Arpt  PTSUNNY   84  76  76 W9        30.00S HX  93
Atlanta        SUNNY     83  74  74 W7        29.99F
Charlotte      MOSUNNY   84  74  71 SW6       29.93F HX  91
Dallas DFW     MOSUNNY   86  74  67 S12       29.89S HX  94
Houston Bush   MOSUNNY   84  77  79 SW7       29.95R HX  94
Wash National  CLOUDY    82  76  81 E3        29.80S
Wash Dulles    CLOUDY    82  72  71 W7        29.81S
Baltimore      CLOUDY    83  74  74 VRB3      29.78S
Philadelphia   PTSUNNY   79  71  76 N5        29.78S
Newark         CLOUDY    76  67  73 CALM      29.79S
Laguardia      CLOUDY    77  70  79 NE5       29.79R
J F K          PTSUNNY   77  71  82 CALM      29.80S
Boston         PTSUNNY   70  55  59 NE15      29.87R
Pittsburg      CLOUDY    75  72  90 SW7       29.83F
Akron          CLOUDY    76  70  82 W7        29.82F
Cleveland      CLOUDY    79  72  79 W6        29.81S
Cincinnati     CLOUDY    72  70  93 W14       29.91R THUNDER
Columbus       CLOUDY    72  72 100 SW7       29.83F THUNDER
Detroit        PTSUNNY   76  66  71 S5        29.80S
Chicago O`Hare PTSUNNY   81  72  74 W5        29.80F
Minneapolis    MOSUNNY   72  56  57 N8        29.89S
Indianapolis   CLOUDY    72  71  97 SW16      29.87F
Toronto Canada CLOUDY    72  66  83 E10       29.79S

$$




USA.gov is the U.S. government's official web portal to all federal, state and local government web resources and services.